Location: Garbet
(42.8837°N, 1.2115°E)
Time: 09:47:43
(UTC+00:00)

Gbstr 26 Del rocket - Pass Details

Date: 13 December 2025
Orbit: 490 x 1218 km, 51.8° (Epoch: 21 January)

Event Time Altitude Azimuth Distance (km) Brightness Sun altitude
Rises 17:04:13 0° 250° (WSW) 2,903 9.0 -7.8°
Reaches altitude 10° 17:06:43 10° 256° (WSW) 1,901 7.2 -8.2°
Maximum altitude 17:10:50 50° 332° (NNW) 683 3.3 -8.9°
Enters shadow 17:14:16 12° 48° (NE) 1,604 4.6 -9.5°
